User: anonymous   Login
Location: Unspecified
(0.0000°N, 0.0000°E)
Time: 13:55:03
(UTC+02:00)
Language:

ASC 2 Rocket - Orbit

View from above orbital plane
View from above orbital plane
View from above satellite
View from above satellite

Ground track
Ground track

The orbit data is extracted from the following two-line orbital elements,

1 21228U 91028B   14297.19397190  .00000316  00000-0  65029-4 0  4202
2 21228 023.9969 167.7733 1145435 279.1024 252.6910 12.52853180 76381
Epoch (UTC): 24 October 2014 04:39:19
Eccentricity: 0.1145435
inclination: 23.9969°
perigee height: 555 km
apogee height: 2349 km
right ascension of ascending node: 167.7733°
argument of perigee: 279.1024°
revolutions per day: 12.52853180
mean anomaly at epoch: 252.6910°
orbit number at epoch: 7638

The dashed part of the orbit path shows where the satellite is in the earth's shadow,  

DLR